THY6VU LTFM-LIRN

Flight info

Callsign THY6VU
Flight time N/A
Altitude 34000
Route BARPE1E/36 BARPE1E UM603 GOLDO DCT PINDO DCT GOKEL DCT TOPNO DCT DOGUS/N0367F180 L995 EKTOL1A
Aircraft A21N/M-SDE2E3FGHIRWY/LB1

Departure

Time 2026-05-05 17:43
Airport İstanbul Airport (LTFM)

Arrival

Time N/A
Airport Naples International Airport (LIRN)
Time Latitude Longitude Altitude Speed Heading
2026-05-05 17:09 41.26536 28.74982 339 ft 0 kts 287°
2026-05-05 17:30 41.26535 28.74986 339 ft 3 kts 287°
2026-05-05 17:31 41.26528 28.75019 337 ft 4 kts 281°
2026-05-05 17:31 41.26524 28.75054 337 ft 4 kts 271°
2026-05-05 17:31 41.26527 28.75089 335 ft 4 kts 245°
2026-05-05 17:31 41.26540 28.75108 334 ft 1 kts 197°
2026-05-05 17:32 41.26541 28.75108 334 ft 1 kts 197°
2026-05-05 17:37 41.26524 28.75101 336 ft 5 kts 197°
2026-05-05 17:37 41.26480 28.75084 338 ft 9 kts 197°
2026-05-05 17:38 41.26411 28.75055 339 ft 11 kts 197°
2026-05-05 17:38 41.26329 28.75023 338 ft 13 kts 197°
2026-05-05 17:38 41.26278 28.75011 338 ft 9 kts 165°
2026-05-05 17:38 41.26243 28.75084 339 ft 11 kts 89°
2026-05-05 17:39 41.26245 28.75195 339 ft 13 kts 89°
2026-05-05 17:39 41.26246 28.75318 339 ft 14 kts 89°
2026-05-05 17:39 41.26248 28.75447 339 ft 8 kts 89°
2026-05-05 17:39 41.26249 28.75492 339 ft 1 kts 89°
2026-05-05 17:41 41.26249 28.75494 339 ft 1 kts 89°
2026-05-05 17:41 41.26249 28.75525 339 ft 5 kts 89°
2026-05-05 17:41 41.26250 28.75594 339 ft 9 kts 88°
2026-05-05 17:41 41.26260 28.75657 335 ft 6 kts 32°
2026-05-05 17:42 41.26297 28.75665 334 ft 2 kts 352°
2026-05-05 17:42 41.26325 28.75665 339 ft 6 kts
2026-05-05 17:42 41.26380 28.75666 335 ft 10 kts 359°
2026-05-05 17:42 41.26477 28.75664 337 ft 29 kts 359°
2026-05-05 17:43 41.26936 28.75655 335 ft 101 kts 359°
2026-05-05 17:43 41.27861 28.75633 344 ft 159 kts 359°
2026-05-05 17:43 41.28961 28.75617 883 ft 158 kts
2026-05-05 17:43 41.30036 28.75899 1445 ft 165 kts 32°
2026-05-05 17:44 41.30887 28.77035 1846 ft 181 kts 42°
2026-05-05 17:44 41.31988 28.77934 2324 ft 192 kts 26°
2026-05-05 17:44 41.33193 28.78778 2831 ft 206 kts 27°
2026-05-05 17:44 41.34494 28.79718 3335 ft 219 kts 27°
2026-05-05 17:45 41.35880 28.80732 3867 ft 236 kts 27°
2026-05-05 17:45 41.37268 28.82024 4502 ft 250 kts 42°
2026-05-05 17:45 41.38224 28.83993 5305 ft 261 kts 66°
2026-05-05 17:45 41.38509 28.86408 6133 ft 269 kts 84°
2026-05-05 17:46 41.38464 28.88922 6923 ft 276 kts 92°
2026-05-05 17:46 41.37926 28.91412 7669 ft 287 kts 114°
2026-05-05 17:46 41.36699 28.93545 8405 ft 297 kts 137°
2026-05-05 17:46 41.34874 28.94814 9108 ft 306 kts 165°
2026-05-05 17:47 41.32751 28.95087 9833 ft 310 kts 180°
2026-05-05 17:47 41.30559 28.95022 10333 ft 322 kts 181°
2026-05-05 17:47 41.28257 28.94962 10648 ft 340 kts 181°
2026-05-05 17:47 41.25833 28.94749 10921 ft 358 kts 191°
2026-05-05 17:48 41.23421 28.93722 11186 ft 374 kts 206°
2026-05-05 17:48 41.21201 28.91893 11663 ft 378 kts 224°
2026-05-05 17:48 41.19528 28.89233 12304 ft 375 kts 243°
2026-05-05 17:48 41.18596 28.86031 12966 ft 370 kts 262°
2026-05-05 17:49 41.18225 28.82645 13644 ft 372 kts 267°
2026-05-05 17:49 41.17932 28.79269 14248 ft 376 kts 267°
2026-05-05 17:49 41.17607 28.75802 14850 ft 380 kts 266°
2026-05-05 17:49 41.17253 28.72314 15469 ft 383 kts 265°
2026-05-05 17:50 41.16884 28.68795 16077 ft 387 kts 265°
2026-05-05 17:50 41.16506 28.65240 16674 ft 390 kts 266°
2026-05-05 17:50 41.16126 28.61665 17264 ft 393 kts 265°
2026-05-05 17:50 41.15740 28.58052 17861 ft 397 kts 265°
2026-05-05 17:51 41.15353 28.54460 18438 ft 400 kts 265°
2026-05-05 17:51 41.14952 28.50802 18935 ft 403 kts 265°
2026-05-05 17:51 41.14547 28.47103 19442 ft 406 kts 265°
2026-05-05 17:51 41.14138 28.43377 19935 ft 410 kts 264°
2026-05-05 17:52 41.13723 28.39627 20437 ft 413 kts 264°
2026-05-05 17:52 41.13304 28.35842 20915 ft 416 kts 264°
2026-05-05 17:52 41.12885 28.32034 21410 ft 418 kts 264°
2026-05-05 17:52 41.12455 28.28209 21889 ft 421 kts 264°
2026-05-05 17:53 41.12022 28.24358 22354 ft 424 kts 264°
2026-05-05 17:53 41.11588 28.20468 22809 ft 427 kts 264°
2026-05-05 17:53 41.11159 28.16614 23252 ft 430 kts 264°
2026-05-05 17:53 41.10729 28.12675 23684 ft 433 kts 264°
2026-05-05 17:54 41.10295 28.08713 24051 ft 435 kts 263°
2026-05-05 17:54 41.09852 28.04732 24433 ft 437 kts 264°
2026-05-05 17:54 41.09403 28.00741 24832 ft 439 kts 264°
2026-05-05 17:54 41.08945 27.96727 25209 ft 441 kts 264°
2026-05-05 17:55 41.08478 27.92701 25564 ft 444 kts 264°
2026-05-05 17:55 41.08006 27.88643 25921 ft 446 kts 264°
2026-05-05 17:55 41.07533 27.84574 26275 ft 448 kts 264°
2026-05-05 17:55 41.07059 27.80474 26621 ft 451 kts 264°
2026-05-05 17:56 41.06582 27.76359 26975 ft 453 kts 264°
2026-05-05 17:56 41.06115 27.72276 27313 ft 455 kts 264°
2026-05-05 17:56 41.05647 27.68125 27642 ft 458 kts 264°
2026-05-05 17:56 41.05172 27.63938 27978 ft 460 kts 263°
2026-05-05 17:57 41.04682 27.59741 28292 ft 463 kts 263°
2026-05-05 17:57 41.04199 27.55520 28597 ft 465 kts 264°
2026-05-05 17:57 41.03740 27.51277 28991 ft 465 kts 264°
2026-05-05 17:57 41.03274 27.47045 29389 ft 464 kts 264°
2026-05-05 17:58 41.02787 27.42834 29899 ft 461 kts 264°
2026-05-05 17:58 41.02290 27.38653 30337 ft 458 kts 264°
2026-05-05 17:58 41.01789 27.34508 30731 ft 455 kts 264°
2026-05-05 17:58 41.01294 27.30439 31090 ft 453 kts 264°
2026-05-05 17:59 41.00806 27.26317 31407 ft 452 kts 265°
2026-05-05 17:59 41.00322 27.22211 31709 ft 451 kts 265°
2026-05-05 17:59 40.99833 27.18112 32003 ft 450 kts 264°
2026-05-05 17:59 40.99327 27.14020 32313 ft 449 kts 264°
2026-05-05 18:00 40.98813 27.09963 32644 ft 446 kts 265°
2026-05-05 18:00 40.98314 27.05915 32948 ft 444 kts 265°
2026-05-05 18:00 40.97828 27.01887 33215 ft 443 kts 265°
2026-05-05 18:00 40.97350 26.97915 33471 ft 442 kts 265°
2026-05-05 18:01 40.96857 26.93899 33720 ft 442 kts 265°
2026-05-05 18:01 40.96366 26.89897 33950 ft 441 kts 265°
2026-05-05 18:01 40.95877 26.85895 34071 ft 439 kts 266°
2026-05-05 18:02 40.94884 26.77937 34073 ft 438 kts 265°
2026-05-05 18:02 40.93884 26.69986 34054 ft 438 kts 266°
2026-05-05 18:03 40.92912 26.62036 34053 ft 438 kts 266°
2026-05-05 18:03 40.91907 26.54134 34039 ft 439 kts 265°
2026-05-05 18:04 40.90916 26.46181 34053 ft 438 kts 268°
2026-05-05 18:04 40.90701 26.38212 34049 ft 433 kts 274°
2026-05-05 18:05 40.90658 26.30303 34056 ft 432 kts 275°
2026-05-05 18:05 40.90601 26.22380 34024 ft 429 kts 275°
2026-05-05 18:06 40.90514 26.14519 34027 ft 428 kts 274°
2026-05-05 18:06 40.90410 26.06650 34028 ft 427 kts 274°
2026-05-05 18:07 40.90283 25.98794 34022 ft 427 kts 274°
2026-05-05 18:07 40.90209 25.91000 34011 ft 426 kts 275°
2026-05-05 18:08 40.90103 25.83172 34020 ft 426 kts 274°
2026-05-05 18:08 40.89961 25.75333 34030 ft 426 kts 274°
2026-05-05 18:09 40.89843 25.67504 34032 ft 426 kts 274°
2026-05-05 18:09 40.89689 25.59679 34031 ft 425 kts 274°
2026-05-05 18:10 40.89559 25.51930 34043 ft 423 kts 275°
2026-05-05 18:10 40.89456 25.44152 34043 ft 423 kts 274°
2026-05-05 18:11 40.89281 25.36370 34042 ft 424 kts 274°
2026-05-05 18:11 40.89127 25.28586 34033 ft 424 kts 274°
2026-05-05 18:12 40.88972 25.20797 34042 ft 424 kts 274°
2026-05-05 18:12 40.88827 25.13068 34045 ft 424 kts 274°
2026-05-05 18:13 40.88645 25.05270 34048 ft 424 kts 274°
2026-05-05 18:13 40.88520 24.98800 34038 ft 424 kts 274°
2026-05-05 18:14 40.88338 24.91015 34049 ft 424 kts 273°
2026-05-05 18:14 40.88143 24.83233 34049 ft 424 kts 273°